Time,TemperatureF,DewpointF,PressureIn,WindDirection,WindDirectionDegrees,WindSpeedMPH,WindSpeedGustMPH,Humidity,HourlyPrecipIn,Conditions,Clouds,dailyrainin,SoftwareType,DateUTC
2013-02-04 00:02:00,36.0,-99.9,-100.00,SSW,201,0.0,0.0,-999,-99.99,,,-99.99,,2013-02-04 06:02:00,
2013-02-04 00:11:00,36.0,-99.9,-100.00,SSW,201,0.0,0.0,-999,-99.99,,,-99.99,,2013-02-04 06:11:00,
2013-02-04 00:22:00,36.0,-99.9,-100.00,SSW,201,0.0,0.0,-999,-99.99,,,-99.99,,2013-02-04 06:22:00,
2013-02-04 00:32:00,35.0,-99.9,-100.00,SSW,201,0.0,0.0,-999,-99.99,,,-99.99,,2013-02-04 06:32:00,
2013-02-04 00:52:00,35.0,-99.9,-100.00,SSW,201,0.0,0.0,-999,-99.99,,,-99.99,,2013-02-04 06:52:00,
2013-02-04 01:02:00,35.0,-99.9,-100.00,SSW,201,0.0,0.0,-999,-99.99,,,-99.99,,2013-02-04 07:02:00,
2013-02-04 01:11:00,35.0,-99.9,-100.00,SSW,201,0.0,0.0,-999,-99.99,,,-99.99,,2013-02-04 07:11:00,
2013-02-04 01:22:00,35.0,-99.9,-100.00,SSW,201,0.0,0.0,-999,-99.99,,,-99.99,,2013-02-04 07:22:00,
2013-02-04 01:32:00,35.0,-99.9,-100.00,SSW,201,0.0,0.0,-999,-99.99,,,-99.99,,2013-02-04 07:32:00,
2013-02-04 01:42:00,35.0,-99.9,-100.00,SSW,201,0.0,0.0,-999,-99.99,,,-99.99,,2013-02-04 07:42:00,
2013-02-04 01:52:00,35.0,-99.9,-100.00,SSW,201,0.0,0.0,-999,-99.99,,,-99.99,,2013-02-04 07:52:00,
2013-02-04 02:01:00,35.0,-99.9,-100.00,SSW,201,0.0,0.0,-999,-99.99,,,-99.99,,2013-02-04 08:01:00,
2013-02-04 02:11:00,35.0,-99.9,-100.00,SSW,201,0.0,0.0,-999,-99.99,,,-99.99,,2013-02-04 08:11:00,
2013-02-04 02:21:00,34.0,-99.9,-100.00,SSW,201,0.0,0.0,-999,-99.99,,,-99.99,,2013-02-04 08:21:00,
2013-02-04 02:32:00,34.0,-99.9,-100.00,SSW,201,0.0,0.0,-999,-99.99,,,-99.99,,2013-02-04 08:32:00,
2013-02-04 02:52:00,35.0,-99.9,-100.00,SSW,201,0.0,0.0,-999,-99.99,,,-99.99,,2013-02-04 08:52:00,
2013-02-04 03:02:00,35.0,-99.9,-100.00,SSW,201,0.0,0.0,-999,-99.99,,,-99.99,,2013-02-04 09:02:00,
2013-02-04 03:11:00,35.0,-99.9,-100.00,SSW,201,0.0,0.0,-999,-99.99,,,-99.99,,2013-02-04 09:11:00,
2013-02-04 03:22:00,35.0,-99.9,-100.00,SSW,201,0.0,0.0,-999,-99.99,,,-99.99,,2013-02-04 09:22:00,
2013-02-04 03:32:00,35.0,-99.9,-100.00,SSW,201,0.0,0.0,-999,-99.99,,,-99.99,,2013-02-04 09:32:00,
2013-02-04 03:42:00,35.0,-99.9,-100.00,SSW,201,0.0,0.0,-999,-99.99,,,-99.99,,2013-02-04 09:42:00,
2013-02-04 03:52:00,35.0,-99.9,-100.00,SSW,201,0.0,0.0,-999,-99.99,,,-99.99,,2013-02-04 09:52:00,
2013-02-04 04:02:00,35.0,-99.9,-100.00,SSW,201,0.0,0.0,-999,-99.99,,,-99.99,,2013-02-04 10:02:00,
2013-02-04 04:12:00,35.0,-99.9,-100.00,SSW,201,0.0,0.0,-999,-99.99,,,-99.99,,2013-02-04 10:12:00,
2013-02-04 04:22:00,36.0,-99.9,-100.00,SSW,201,0.0,0.0,-999,-99.99,,,-99.99,,2013-02-04 10:22:00,
2013-02-04 04:32:00,35.0,-99.9,-100.00,SSW,201,0.0,0.0,-999,-99.99,,,-99.99,,2013-02-04 10:32:00,
2013-02-04 04:42:00,35.0,-99.9,-100.00,SSW,201,0.0,0.0,-999,-99.99,,,-99.99,,2013-02-04 10:42:00,
2013-02-04 04:52:00,35.0,-99.9,-100.00,SSW,201,0.0,0.0,-999,-99.99,,,-99.99,,2013-02-04 10:52:00,
2013-02-04 05:02:00,36.0,-99.9,-100.00,SSW,201,0.0,0.0,-999,-99.99,,,-99.99,,2013-02-04 11:02:00,
2013-02-04 05:12:00,36.0,-99.9,-100.00,SSW,201,0.0,0.0,-999,-99.99,,,-99.99,,2013-02-04 11:12:00,
2013-02-04 05:22:00,36.0,-99.9,-100.00,SSW,201,0.0,0.0,-999,-99.99,,,-99.99,,2013-02-04 11:22:00,
2013-02-04 05:33:00,36.0,-99.9,-100.00,SSW,201,0.0,0.0,-999,-99.99,,,-99.99,,2013-02-04 11:33:00,
2013-02-04 05:42:00,36.0,-99.9,-100.00,SSW,201,0.0,0.0,-999,-99.99,,,-99.99,,2013-02-04 11:42:00,
2013-02-04 05:53:00,37.0,-99.9,-100.00,SSW,201,0.0,0.0,-999,-99.99,,,-99.99,,2013-02-04 11:53:00,
2013-02-04 06:03:00,37.0,-99.9,-100.00,SSW,201,0.0,0.0,-999,-99.99,,,-99.99,,2013-02-04 12:03:00,
2013-02-04 06:12:00,37.0,-99.9,-100.00,SSW,201,0.0,0.0,-999,-99.99,,,-99.99,,2013-02-04 12:12:00,
2013-02-04 06:22:00,36.0,-99.9,-100.00,SSW,201,0.0,0.0,-999,-99.99,,,-99.99,,2013-02-04 12:22:00,
2013-02-04 06:33:00,36.0,-99.9,-100.00,SSW,201,0.0,0.0,-999,-99.99,,,-99.99,,2013-02-04 12:33:00,
2013-02-04 06:42:00,36.0,-99.9,-100.00,SSW,201,0.0,0.0,-999,-99.99,,,-99.99,,2013-02-04 12:42:00,
2013-02-04 06:53:00,36.0,-99.9,-100.00,SSW,201,0.0,0.0,-999,-99.99,,,-99.99,,2013-02-04 12:53:00,
2013-02-04 07:03:00,36.0,-99.9,-100.00,SSW,201,0.0,0.0,-999,-99.99,,,-99.99,,2013-02-04 13:03:00,
2013-02-04 07:13:00,37.0,-99.9,-100.00,SSW,201,0.0,0.0,-999,-99.99,,,-99.99,,2013-02-04 13:13:00,
2013-02-04 07:22:00,37.0,-99.9,-100.00,SSW,201,0.0,0.0,-999,-99.99,,,-99.99,,2013-02-04 13:22:00,
2013-02-04 07:33:00,37.0,-99.9,-100.00,SSW,201,0.0,0.0,-999,-99.99,,,-99.99,,2013-02-04 13:33:00,
2013-02-04 07:42:00,37.0,-99.9,-100.00,SSW,201,0.0,0.0,-999,-99.99,,,-99.99,,2013-02-04 13:42:00,
2013-02-04 07:52:00,38.0,-99.9,-100.00,SSW,201,0.0,0.0,-999,-99.99,,,-99.99,,2013-02-04 13:52:00,
2013-02-04 08:03:00,39.0,-99.9,-100.00,SSW,201,0.0,0.0,-999,-99.99,,,-99.99,,2013-02-04 14:03:00,
2013-02-04 08:12:00,39.0,-99.9,-100.00,SSW,201,0.0,0.0,-999,-99.99,,,-99.99,,2013-02-04 14:12:00,
2013-02-04 08:23:00,41.0,-99.9,-100.00,SSW,201,0.0,0.0,-999,-99.99,,,-99.99,,2013-02-04 14:23:00,
2013-02-04 08:33:00,41.0,-99.9,-100.00,SSW,201,0.0,0.0,-999,-99.99,,,-99.99,,2013-02-04 14:33:00,
2013-02-04 08:42:00,41.0,-99.9,-100.00,SSW,201,0.0,0.0,-999,-99.99,,,-99.99,,2013-02-04 14:42:00,
2013-02-04 08:53:00,42.0,-99.9,-100.00,SSW,201,0.0,0.0,-999,-99.99,,,-99.99,,2013-02-04 14:53:00,
2013-02-04 09:04:00,43.0,-99.9,-100.00,SSW,201,0.0,0.0,-999,-99.99,,,-99.99,,2013-02-04 15:04:00,
2013-02-04 09:13:00,43.0,-99.9,-100.00,SSW,201,0.0,0.0,-999,-99.99,,,-99.99,,2013-02-04 15:13:00,
2013-02-04 09:24:00,44.0,-99.9,-100.00,SSW,201,0.0,0.0,-999,-99.99,,,-99.99,,2013-02-04 15:24:00,
2013-02-04 09:33:00,47.0,-99.9,-100.00,SSW,201,0.0,0.0,-999,-99.99,,,-99.99,,2013-02-04 15:33:00,
2013-02-04 09:43:00,47.0,-99.9,-100.00,SSW,201,0.0,0.0,-999,-99.99,,,-99.99,,2013-02-04 15:43:00,
2013-02-04 09:53:00,52.0,-99.9,-100.00,NE,52,0.0,0.0,-999,-99.99,,,-99.99,,2013-02-04 15:53:00,
2013-02-04 10:03:00,53.0,-99.9,-100.00,ENE,73,0.0,0.0,-999,-99.99,,,-99.99,,2013-02-04 16:03:00,
2013-02-04 10:11:00,53.0,-99.9,-100.00,ENE,73,0.0,0.0,-999,-99.99,,,-99.99,,2013-02-04 16:11:00,
2013-02-04 10:23:00,54.0,-99.9,-100.00,ENE,73,0.0,0.0,-999,-99.99,,,-99.99,,2013-02-04 16:23:00,
2013-02-04 10:33:00,54.0,-99.9,-100.00,ENE,73,0.0,0.0,-999,-99.99,,,-99.99,,2013-02-04 16:33:00,
2013-02-04 10:43:00,54.0,-99.9,-100.00,ENE,73,0.0,0.0,-999,-99.99,,,-99.99,,2013-02-04 16:43:00,
2013-02-04 10:52:00,54.0,-99.9,-100.00,ENE,73,0.0,0.0,-999,-99.99,,,-99.99,,2013-02-04 16:52:00,
2013-02-04 11:03:00,54.0,-99.9,-100.00,ENE,73,0.0,0.0,-999,-99.99,,,-99.99,,2013-02-04 17:03:00,
2013-02-04 11:12:00,55.0,-99.9,-100.00,ENE,73,0.0,0.0,-999,-99.99,,,-99.99,,2013-02-04 17:12:00,
2013-02-04 11:21:00,55.0,-99.9,-100.00,ENE,73,0.0,0.0,-999,-99.99,,,-99.99,,2013-02-04 17:21:00,
2013-02-04 11:32:00,56.0,-99.9,-100.00,ENE,73,0.0,0.0,-999,-99.99,,,-99.99,,2013-02-04 17:32:00,
2013-02-04 11:42:00,56.0,-99.9,-100.00,ENE,74,0.0,2.0,-999,-99.99,,,-99.99,,2013-02-04 17:42:00,
2013-02-04 11:52:00,56.0,-99.9,-100.00,ENE,74,0.0,2.0,-999,-99.99,,,-99.99,,2013-02-04 17:52:00,
2013-02-04 12:03:00,58.0,-99.9,-100.00,SE,126,0.0,1.0,-999,-99.99,,,-99.99,,2013-02-04 18:03:00,
2013-02-04 12:12:00,58.0,-99.9,-100.00,SE,126,0.0,1.0,-999,-99.99,,,-99.99,,2013-02-04 18:12:00,
2013-02-04 12:22:00,59.0,-99.9,-100.00,SSE,156,0.0,0.0,-999,-99.99,,,-99.99,,2013-02-04 18:22:00,
2013-02-04 12:33:00,59.0,-99.9,-100.00,SSE,156,0.0,0.0,-999,-99.99,,,-99.99,,2013-02-04 18:33:00,
2013-02-04 12:42:00,59.0,-99.9,-100.00,SSE,156,0.0,0.0,-999,-99.99,,,-99.99,,2013-02-04 18:42:00,
2013-02-04 12:52:00,58.0,-99.9,-100.00,SSE,156,0.0,0.0,-999,-99.99,,,-99.99,,2013-02-04 18:52:00,
2013-02-04 13:02:00,59.0,-99.9,-100.00,SSE,156,0.0,0.0,-999,-99.99,,,-99.99,,2013-02-04 19:02:00,
2013-02-04 13:12:00,59.0,-99.9,-100.00,SSE,156,0.0,0.0,-999,-99.99,,,-99.99,,2013-02-04 19:12:00,
2013-02-04 13:23:00,59.0,-99.9,-100.00,SSE,156,0.0,0.0,-999,-99.99,,,-99.99,,2013-02-04 19:23:00,
2013-02-04 13:32:00,60.0,-99.9,-100.00,WSW,258,1.0,1.0,-999,-99.99,,,-99.99,,2013-02-04 19:32:00,
2013-02-04 13:42:00,60.0,-99.9,-100.00,WSW,258,1.0,1.0,-999,-99.99,,,-99.99,,2013-02-04 19:42:00,
2013-02-04 13:52:00,61.0,-99.9,-100.00,SSE,153,1.0,1.0,-999,-99.99,,,-99.99,,2013-02-04 19:52:00,
2013-02-04 14:02:00,62.0,-99.9,-100.00,West,268,0.0,2.0,-999,-99.99,,,-99.99,,2013-02-04 20:02:00,
2013-02-04 14:12:00,62.0,-99.9,-100.00,West,268,0.0,2.0,-999,-99.99,,,-99.99,,2013-02-04 20:12:00,
2013-02-04 14:22:00,62.0,-99.9,-100.00,West,268,0.0,0.0,-999,-99.99,,,-99.99,,2013-02-04 20:22:00,
2013-02-04 14:32:00,62.0,-99.9,-100.00,ENE,75,0.0,0.0,-999,-99.99,,,-99.99,,2013-02-04 20:32:00,
2013-02-04 14:42:00,62.0,-99.9,-100.00,ENE,75,0.0,0.0,-999,-99.99,,,-99.99,,2013-02-04 20:42:00,
2013-02-04 14:52:00,62.0,-99.9,-100.00,ENE,75,0.0,0.0,-999,-99.99,,,-99.99,,2013-02-04 20:52:00,
2013-02-04 15:03:00,62.0,-99.9,-100.00,ENE,75,0.0,0.0,-999,-99.99,,,-99.99,,2013-02-04 21:03:00,
2013-02-04 15:12:00,62.0,-99.9,-100.00,ENE,75,0.0,0.0,-999,-99.99,,,-99.99,,2013-02-04 21:12:00,
2013-02-04 15:23:00,62.0,-99.9,-100.00,ENE,75,0.0,0.0,-999,-99.99,,,-99.99,,2013-02-04 21:23:00,
2013-02-04 15:32:00,61.0,-99.9,-100.00,ENE,75,0.0,0.0,-999,-99.99,,,-99.99,,2013-02-04 21:32:00,
2013-02-04 15:43:00,61.0,-99.9,-100.00,ENE,75,0.0,0.0,-999,-99.99,,,-99.99,,2013-02-04 21:43:00,
2013-02-04 15:52:00,61.0,-99.9,-100.00,ENE,75,0.0,0.0,-999,-99.99,,,-99.99,,2013-02-04 21:52:00,
2013-02-04 16:03:00,61.0,-99.9,-100.00,ENE,75,0.0,0.0,-999,-99.99,,,-99.99,,2013-02-04 22:03:00,
2013-02-04 16:12:00,61.0,-99.9,-100.00,ENE,75,0.0,0.0,-999,-99.99,,,-99.99,,2013-02-04 22:12:00,
2013-02-04 16:22:00,61.0,-99.9,-100.00,ENE,75,0.0,0.0,-999,-99.99,,,-99.99,,2013-02-04 22:22:00,
2013-02-04 16:33:00,59.0,-99.9,-100.00,ENE,75,0.0,0.0,-999,-99.99,,,-99.99,,2013-02-04 22:33:00,
2013-02-04 16:42:00,59.0,-99.9,-100.00,ENE,75,0.0,0.0,-999,-99.99,,,-99.99,,2013-02-04 22:42:00,
2013-02-04 16:52:00,59.0,-99.9,-100.00,ENE,75,0.0,0.0,-999,-99.99,,,-99.99,,2013-02-04 22:52:00,
2013-02-04 17:02:00,58.0,-99.9,-100.00,ENE,75,0.0,0.0,-999,-99.99,,,-99.99,,2013-02-04 23:02:00,
2013-02-04 17:11:00,58.0,-99.9,-100.00,ENE,75,0.0,0.0,-999,-99.99,,,-99.99,,2013-02-04 23:11:00,
2013-02-04 17:22:00,56.0,-99.9,-100.00,ENE,75,0.0,0.0,-999,-99.99,,,-99.99,,2013-02-04 23:22:00,
2013-02-04 17:32:00,56.0,-99.9,-100.00,ENE,75,0.0,0.0,-999,-99.99,,,-99.99,,2013-02-04 23:32:00,
2013-02-04 17:42:00,56.0,-99.9,-100.00,ENE,75,0.0,0.0,-999,-99.99,,,-99.99,,2013-02-04 23:42:00,
2013-02-04 17:53:00,56.0,-99.9,-100.00,West,275,0.0,1.0,-999,-99.99,,,-99.99,,2013-02-04 23:53:00,
2013-02-04 18:02:00,56.0,-99.9,-100.00,West,275,0.0,1.0,-999,-99.99,,,-99.99,,2013-02-05 00:02:00,
2013-02-04 18:12:00,56.0,-99.9,-100.00,West,275,0.0,1.0,-999,-99.99,,,-99.99,,2013-02-05 00:12:00,
2013-02-04 18:22:00,55.0,-99.9,-100.00,West,275,0.0,0.0,-999,-99.99,,,-99.99,,2013-02-05 00:22:00,
2013-02-04 18:32:00,55.0,-99.9,-100.00,West,275,0.0,0.0,-999,-99.99,,,-99.99,,2013-02-05 00:32:00,
2013-02-04 18:42:00,55.0,-99.9,-100.00,West,275,0.0,0.0,-999,-99.99,,,-99.99,,2013-02-05 00:42:00,
2013-02-04 18:52:00,54.0,-99.9,-100.00,West,275,0.0,0.0,-999,-99.99,,,-99.99,,2013-02-05 00:52:00,
2013-02-04 19:02:00,54.0,-99.9,-100.00,West,275,0.0,0.0,-999,-99.99,,,-99.99,,2013-02-05 01:02:00,
2013-02-04 19:12:00,54.0,-99.9,-100.00,West,275,0.0,0.0,-999,-99.99,,,-99.99,,2013-02-05 01:12:00,
2013-02-04 19:22:00,55.0,-99.9,-100.00,West,275,0.0,0.0,-999,-99.99,,,-99.99,,2013-02-05 01:22:00,
2013-02-04 19:33:00,55.0,-99.9,-100.00,West,275,0.0,0.0,-999,-99.99,,,-99.99,,2013-02-05 01:33:00,
2013-02-04 19:42:00,55.0,-99.9,-100.00,West,275,0.0,0.0,-999,-99.99,,,-99.99,,2013-02-05 01:42:00,
2013-02-04 19:52:00,54.0,-99.9,-100.00,West,275,0.0,0.0,-999,-99.99,,,-99.99,,2013-02-05 01:52:00,
2013-02-04 20:02:00,54.0,-99.9,-100.00,West,275,0.0,0.0,-999,-99.99,,,-99.99,,2013-02-05 02:02:00,
2013-02-04 20:12:00,54.0,-99.9,-100.00,West,275,0.0,0.0,-999,-99.99,,,-99.99,,2013-02-05 02:12:00,
2013-02-04 20:22:00,54.0,-99.9,-100.00,West,275,0.0,0.0,-999,-99.99,,,-99.99,,2013-02-05 02:22:00,
2013-02-04 20:32:00,53.0,-99.9,-100.00,West,275,0.0,0.0,-999,-99.99,,,-99.99,,2013-02-05 02:32:00,
2013-02-04 20:42:00,53.0,-99.9,-100.00,West,275,0.0,0.0,-999,-99.99,,,-99.99,,2013-02-05 02:42:00,
2013-02-04 20:52:00,52.0,-99.9,-100.00,West,275,0.0,0.0,-999,-99.99,,,-99.99,,2013-02-05 02:52:00,
2013-02-04 21:02:00,52.0,-99.9,-100.00,West,275,0.0,0.0,-999,-99.99,,,-99.99,,2013-02-05 03:02:00,
2013-02-04 21:12:00,52.0,-99.9,-100.00,West,275,0.0,0.0,-999,-99.99,,,-99.99,,2013-02-05 03:12:00,
2013-02-04 21:22:00,52.0,-99.9,-100.00,West,275,0.0,0.0,-999,-99.99,,,-99.99,,2013-02-05 03:22:00,
2013-02-04 21:32:00,52.0,-99.9,-100.00,West,275,0.0,0.0,-999,-99.99,,,-99.99,,2013-02-05 03:32:00,
2013-02-04 21:42:00,52.0,-99.9,-100.00,West,275,0.0,0.0,-999,-99.99,,,-99.99,,2013-02-05 03:42:00,
2013-02-04 21:52:00,52.0,-99.9,-100.00,West,275,0.0,0.0,-999,-99.99,,,-99.99,,2013-02-05 03:52:00,
2013-02-04 22:02:00,52.0,-99.9,-100.00,West,275,0.0,0.0,-999,-99.99,,,-99.99,,2013-02-05 04:02:00,
2013-02-04 22:11:00,52.0,-99.9,-100.00,West,275,0.0,0.0,-999,-99.99,,,-99.99,,2013-02-05 04:11:00,
2013-02-04 22:22:00,52.0,-99.9,-100.00,West,275,0.0,0.0,-999,-99.99,,,-99.99,,2013-02-05 04:22:00,
2013-02-04 22:32:00,52.0,-99.9,-100.00,West,275,0.0,0.0,-999,-99.99,,,-99.99,,2013-02-05 04:32:00,
2013-02-04 22:42:00,52.0,-99.9,-100.00,West,275,0.0,0.0,-999,-99.99,,,-99.99,,2013-02-05 04:42:00,
2013-02-04 22:52:00,52.0,-99.9,-100.00,West,275,0.0,0.0,-999,-99.99,,,-99.99,,2013-02-05 04:52:00,
2013-02-04 23:03:00,52.0,-99.9,-100.00,West,275,0.0,0.0,-999,-99.99,,,-99.99,,2013-02-05 05:03:00,
2013-02-04 23:12:00,52.0,-99.9,-100.00,West,275,0.0,0.0,-999,-99.99,,,-99.99,,2013-02-05 05:12:00,
2013-02-04 23:22:00,52.0,-99.9,-100.00,West,275,0.0,0.0,-999,-99.99,,,-99.99,,2013-02-05 05:22:00,
2013-02-04 23:32:00,52.0,-99.9,-100.00,West,275,0.0,0.0,-999,-99.99,,,-99.99,,2013-02-05 05:32:00,
2013-02-04 23:42:00,52.0,-99.9,-100.00,West,275,0.0,0.0,-999,-99.99,,,-99.99,,2013-02-05 05:42:00,
2013-02-04 23:52:00,52.0,-99.9,-100.00,West,275,0.0,0.0,-999,-99.99,,,-99.99,,2013-02-05 05:52:00,